Location: Newark
(42.8481°N, 0.4872°E)
Time: 01:18:43
(UTC+00:00)

Transit 2A Rocket - All Passes

Search period start: 27 October 2020 00:00
Search period end: 06 November 2020 00:00
Orbit: 586 x 916 km, 66.7° (Epoch: 26 October)

Date Brightness Start Highest point End Pass type
(mag) Time Alt. Az. Time Alt. Az. Time Alt. Az.
27 Oct - 08:08:06 10° SE 08:11:15 15° ESE 08:14:24 10° ENE daylight
27 Oct - 09:46:59 10° SSW 09:53:07 87° ESE 09:59:06 10° NNE daylight
27 Oct - 11:31:55 10° W 11:36:28 21° NW 11:40:54 10° N daylight
27 Oct - 16:49:32 10° N 16:52:44 16° NE 16:55:46 10° ENE daylight
27 Oct - 18:31:03 10° NNW 18:36:19 80° ENE 18:41:03 10° SSE visible
27 Oct - 20:16:05 10° W 20:17:58 12° WSW 20:19:47 10° SW visible
28 Oct - 09:04:39 10° S 09:10:35 55° ESE 09:16:24 10° NE daylight
28 Oct - 10:48:11 10° WSW 10:53:31 31° NW 10:58:41 10° NNE daylight
28 Oct - 16:08:05 10° NNE 16:09:33 11° NNE 16:10:59 10° NE daylight
28 Oct - 17:48:33 10° NNW 17:53:38 47° NE 17:58:14 10° SE visible
28 Oct - 19:31:57 10° WNW 19:35:48 22° WSW 19:39:24 10° SSW visible
29 Oct - 08:22:46 10° S 08:28:09 34° ESE 08:33:28 10° NE daylight
29 Oct - 10:04:50 10° SW 10:10:41 46° NW 10:16:21 10° NNE daylight
29 Oct - 11:52:29 10° NW 11:54:47 12° NNW 11:57:02 10° N daylight
29 Oct - 17:06:11 10° NNW 17:10:48 30° NE 17:15:03 10° ESE daylight
29 Oct - 18:48:45 10° NW 18:53:31 39° WSW 18:57:51 10° S visible
30 Oct - 07:41:29 10° SSE 07:45:51 21° ESE 07:50:09 10° ENE daylight
30 Oct - 09:21:52 10° SW 09:27:58 71° WNW 09:33:54 10° NNE daylight
30 Oct - 11:07:47 10° WNW 11:11:37 17° NW 11:15:20 10° N daylight
30 Oct - 16:24:00 10° N 16:27:51 20° NE 16:31:27 10° E daylight
30 Oct - 18:05:56 10° NW 18:11:05 71° WSW 18:15:43 10° SSE visible
31 Oct - 07:01:34 10° ESE 07:03:38 12° ESE 07:05:42 10° E daylight
31 Oct - 08:39:17 10° SSW 08:45:22 75° ESE 08:51:18 10° NE daylight
31 Oct - 10:23:44 10° W 10:28:34 24° NW 10:33:16 10° N daylight
31 Oct - 15:42:06 10° N 15:44:45 14° NNE 15:47:17 10° ENE daylight
31 Oct - 17:23:19 10° NNW 17:28:30 66° ENE 17:33:11 10° SE visible
31 Oct - 19:07:35 10° WNW 19:10:20 15° WSW 19:12:57 10° SW visible
01 Nov - 07:57:05 10° S 08:02:53 46° ESE 08:08:32 10° NE daylight
01 Nov - 09:40:08 10° WSW 09:45:39 35° NW 09:51:00 10° NNE daylight
01 Nov - 16:40:52 10° NNW 16:45:47 39° NE 16:50:14 10° ESE daylight
01 Nov - 18:23:56 10° NW 18:28:08 27° WSW 18:32:00 10° SSW visible
02 Nov - 07:15:23 10° SSE 07:20:30 29° ESE 07:25:29 10° NE daylight
02 Nov - 08:56:55 10° SW 09:02:53 53° NW 09:08:37 10° NNE daylight
02 Nov - 10:43:55 10° WNW 10:46:47 14° NNW 10:49:36 10° N daylight
02 Nov - 15:58:34 10° NNW 16:02:54 25° NE 16:06:55 10° E daylight
02 Nov - 17:40:53 10° NW 17:45:47 48° WSW 17:50:14 10° S visible
03 Nov - 06:34:25 10° SE 06:38:13 17° ESE 06:41:57 10° ENE daylight
03 Nov - 08:14:05 10° SSW 08:20:12 82° WNW 08:26:08 10° NNE daylight
03 Nov - 09:59:29 10° W 10:03:40 19° NW 10:07:44 10° N daylight
03 Nov - 15:16:28 10° N 15:19:54 17° NE 15:23:07 10° E daylight
03 Nov - 16:58:08 10° NNW 17:03:18 87° WSW 17:07:57 10° SSE daylight
04 Nov - 07:31:37 10° SSW 07:37:38 64° ESE 07:43:29 10° NE daylight
04 Nov - 09:15:36 10° WSW 09:20:41 27° NW 09:25:36 10° NNE daylight
04 Nov - 14:34:48 10° N 14:36:46 12° NNE 14:38:38 10° NE daylight
04 Nov - 16:15:36 10° NNW 16:20:41 55° NE 16:25:16 10° SE daylight
04 Nov - 17:59:20 10° WNW 18:02:41 18° WSW 18:05:50 10° SSW visible
05 Nov - 06:49:35 10° S 06:55:11 39° ESE 07:00:38 10° NE daylight
05 Nov - 08:32:08 10° WSW 08:37:49 40° NW 08:43:18 10° NNE daylight
05 Nov - 10:20:39 10° NW 10:22:02 11° NNW 10:23:23 10° NNW daylight
05 Nov - 15:33:12 10° NNW 15:37:54 33° NE 15:42:11 10° ESE daylight
05 Nov - 17:15:58 10° NW 17:20:25 33° WSW 17:24:32 10° S visible
